Location: McFarlands Corners
(41.4117°N, 81.3382°W)
Time: 08:59:09
(UTC+00:00)

Vanguard 1 Rocket - Pass Details

Date: 18 February 2026
Orbit: 653 x 4214 km, 34.3° (Epoch: 8 March)

Event Time Altitude Azimuth Distance (km) Brightness Sun altitude
Rises 00:49:42 0° 281° (WNW) 6,615 13.3 -20.9°
Reaches altitude 10° 00:53:53 10° 275° (W) 6,007 12.7 -21.6°
Maximum altitude 01:12:17 41° 214° (SW) 5,069 11.3 -25.1°
Drops below altitude 10° 01:34:57 10° 154° (SSE) 7,205 11.6 -29.3°
Enters shadow 01:40:36 - 148° (SSE) 7,953 11.8 -30.3°
